Weather History for KPVC - December, 2012

Change the Weather History Date:

Sunday, December 9, 2012

  Actual Average Record
Temperature  
Mean Temperature 45 °F -  
Max Temperature 48 °F 43 °F 65 °F (1951)
Min Temperature 42 °F 34 °F 19 °F (2008)
Degree Days  
Heating Degree Days 20    
Moisture  
Dew Point 40 °F    
Average Humidity 79    
Maximum Humidity 100    
Minimum Humidity 58    
Precipitation  
Precipitation 0.04 in - - ()
Sea Level Pressure  
Sea Level Pressure 30.18 in    
Wind  
Wind Speed 10 mph (NNE)    
Max Wind Speed 17 mph    
Max Gust Speed 24 mph    
Visibility 10 miles    
Events      
Averages and records for this station are not official NWS values.
T = Trace of Precipitation, MM = Missing Value Source: NWS Daily Summary

Daily Weather History Graph

Daily Weather History Graph

Search for Another Location

Airport or City:

Trip Planner

Search our weather history database for the weather conditions in past years. The results will help you decide how hot, cold, wet, or windy it might be!

Date:

Astronomy

Dec. 09, 2012 Rise Set
Actual Time 6:57 AM EST 4:09 PM EST
Civil Twilight 6:26 AM EST 4:40 PM EST
Nautical Twilight 5:51 AM EST 5:15 PM EST
Astronomical Twilight 5:17 AM EST 5:49 PM EST
Moon 2:23 AM EST (12/9) 1:16 PM EST (12/9)
Length of Visible Light 10h 14m
Length of Day
9h 11m
Waning Crescent, 19% of the Moon is Illuminated
Dec 9
Waning Crescent
Dec 13
New
Dec 20
First Quarter
Dec 28
Full
Jan 4
Last Quarter

Hourly Weather History & Observations

Time (EST) Temp. Windchill Dew Point Humidity Pressure Visibility Wind Dir Wind Speed Gust Speed Precip Events Conditions
12:15 AM 46.4 °F 42.4 °F 44.6 °F 93% 29.97 in 8.0 mi WSW 8.1 mph - N/A   Clear
12:35 AM 46.4 °F 42.4 °F 44.6 °F 93% 29.97 in 7.0 mi WSW 8.1 mph - N/A   Clear
12:55 AM 46.4 °F 41.9 °F 46.4 °F 100% 29.97 in 7.0 mi WSW 9.2 mph - N/A   Scattered Clouds
1:15 AM 46.4 °F 41.5 °F 46.4 °F 100% 29.98 in 8.0 mi WSW 10.4 mph - N/A   Partly Cloudy
1:35 AM 46.4 °F 41.9 °F 46.4 °F 100% 29.99 in 9.0 mi WSW 9.2 mph - N/A   Partly Cloudy
2:15 AM 46.4 °F 41.1 °F 46.4 °F 100% 30.01 in 10.0 mi West 11.5 mph - N/A   Overcast
2:35 AM 48.2 °F - 46.4 °F 93% 30.01 in 10.0 mi West 10.4 mph - N/A   Overcast
2:55 AM 48.2 °F - 46.4 °F 93% 30.03 in 10.0 mi West 12.7 mph - N/A   Mostly Cloudy
3:15 AM 48.2 °F - 46.4 °F 93% 30.04 in 10.0 mi West 10.4 mph - N/A   Scattered Clouds
3:55 AM 46.4 °F 41.9 °F 44.6 °F 93% 30.05 in 10.0 mi West 9.2 mph - N/A   Scattered Clouds
4:15 AM 46.4 °F 41.5 °F 44.6 °F 93% 30.06 in 10.0 mi West 10.4 mph - N/A   Clear
5:15 AM 46.4 °F 41.9 °F 44.6 °F 93% 30.08 in 10.0 mi WNW 9.2 mph - N/A   Clear
5:55 AM 46.4 °F 41.5 °F 44.6 °F 93% 30.11 in 10.0 mi WNW 10.4 mph - N/A   Clear
6:15 AM 48.2 °F - 44.6 °F 87% 30.12 in 10.0 mi NW 11.5 mph 18.4 mph N/A   Clear
6:35 AM 48.2 °F - 44.6 °F 87% 30.14 in 10.0 mi NW 12.7 mph - N/A   Mostly Cloudy
6:55 AM 48.2 °F - 44.6 °F 87% 30.15 in 10.0 mi NW 15.0 mph - N/A   Partly Cloudy
8:15 AM 48.2 °F - 41.0 °F 76% 30.19 in 10.0 mi NNW 12.7 mph 21.9 mph N/A   Clear
10:15 AM 48.2 °F - 37.4 °F 66% 30.25 in 10.0 mi North 13.8 mph 24.2 mph N/A   Clear
10:35 AM 48.2 °F - 35.6 °F 62% 30.25 in 10.0 mi North 17.3 mph 23.0 mph N/A   Clear
10:55 AM 48.2 °F - 33.8 °F 58% 30.25 in 10.0 mi NNW 17.3 mph 23.0 mph N/A   Clear
11:15 AM 48.2 °F - 33.8 °F 58% 30.24 in 10.0 mi NNW 15.0 mph 21.9 mph N/A   Clear
11:55 AM 48.2 °F - 35.6 °F 62% 30.24 in 10.0 mi North 15.0 mph - N/A   Clear
12:15 PM 48.2 °F - 35.6 °F 62% 30.23 in 10.0 mi North 12.7 mph 19.6 mph N/A   Clear
12:55 PM 48.2 °F - 33.8 °F 58% 30.24 in 10.0 mi North 9.2 mph - N/A   Clear
1:15 PM 46.4 °F 41.9 °F 35.6 °F 66% 30.24 in 10.0 mi North 9.2 mph - N/A   Clear
1:35 PM 46.4 °F 41.5 °F 35.6 °F 66% 30.23 in 10.0 mi NNE 10.4 mph - N/A   Clear
1:55 PM 46.4 °F 41.9 °F 35.6 °F 66% 30.25 in 10.0 mi North 9.2 mph - N/A   Clear
2:15 PM 46.4 °F 40.7 °F 35.6 °F 66% 30.25 in 10.0 mi NNE 12.7 mph - N/A   Clear
3:15 PM 46.4 °F 41.9 °F 35.6 °F 66% 30.27 in 10.0 mi NE 9.2 mph - N/A   Clear
4:15 PM 42.8 °F 40.1 °F 35.6 °F 76% 30.28 in 10.0 mi ENE 4.6 mph - N/A   Clear
4:55 PM 42.8 °F 39.3 °F 37.4 °F 81% 30.29 in 10.0 mi East 5.8 mph - N/A   Scattered Clouds
5:15 PM 42.8 °F 39.3 °F 35.6 °F 76% 30.28 in 10.0 mi East 5.8 mph - N/A   Partly Cloudy
5:35 PM 44.6 °F 40.7 °F 37.4 °F 76% 30.29 in 10.0 mi East 6.9 mph - N/A   Clear
5:55 PM 44.6 °F 40.7 °F 35.6 °F 71% 30.29 in 10.0 mi East 6.9 mph - N/A   Mostly Cloudy
6:15 PM 44.6 °F 39.7 °F 35.6 °F 71% 30.28 in 10.0 mi East 9.2 mph - N/A   Overcast
6:35 PM 44.6 °F 39.7 °F 35.6 °F 71% 30.29 in 10.0 mi East 9.2 mph - N/A   Overcast
6:55 PM 44.6 °F 40.7 °F 35.6 °F 71% 30.30 in 10.0 mi East 6.9 mph - N/A   Overcast
7:15 PM 44.6 °F 40.7 °F 35.6 °F 71% 30.30 in 10.0 mi East 6.9 mph - N/A   Overcast
7:55 PM 46.4 °F 42.4 °F 35.6 °F 66% 30.30 in 10.0 mi East 8.1 mph - N/A   Overcast
8:35 PM 46.4 °F 41.1 °F 35.6 °F 66% 30.28 in 10.0 mi East 11.5 mph 16.1 mph N/A   Overcast
8:55 PM 44.6 °F 39.7 °F 35.6 °F 71% 30.26 in 10.0 mi East 9.2 mph - N/A   Overcast
9:15 PM 44.6 °F 39.7 °F 37.4 °F 76% 30.25 in 10.0 mi East 9.2 mph - N/A   Overcast
9:55 PM 46.4 °F 41.9 °F 37.4 °F 71% 30.24 in 10.0 mi ESE 9.2 mph - N/A   Overcast
10:35 PM 44.6 °F 39.7 °F 39.2 °F 81% 30.24 in 10.0 mi ESE 9.2 mph - N/A   Overcast
10:55 PM 44.6 °F 40.2 °F 41.0 °F 87% 30.22 in 9.0 mi ESE 8.1 mph - 0.01 in   Overcast
11:15 PM 44.6 °F 39.7 °F 42.8 °F 93% 30.21 in 9.0 mi ESE 9.2 mph - 0.02 in   Mostly Cloudy
11:35 PM 44.6 °F 40.2 °F 42.8 °F 93% 30.20 in 10.0 mi ESE 8.1 mph - 0.03 in   Overcast
11:55 PM 44.6 °F 40.2 °F 41.0 °F 87% 30.18 in 10.0 mi East 8.1 mph - 0.03 in   Overcast